Regional Weather Roundup
Issued by NWS Green Bay, WI

Home | Current Version | Previous Version | Text Only | Print | Product List | Glossary On
Versions: 1 2 3 4 5 6 7 8 9 10 11 12 13 14 15 16 17 18 19 20 21 22 23 24 25 26 27 28 29 30 31 32 33 34 35 36 37 38 39 40 41 42 43 44 45 46 47 48 49 50
000
ASUS43 KGRB 240911
RWRGRB

NORTH-CENTRAL AND NORTHEAST WISCONSIN REGIONAL WEATHER ROUNDUP
NATIONAL WEATHER SERVICE GREEN BAY WI
300 AM CST FRI NOV 24 2017

WIZ005-009-010>012-018-019-241000-
NORTH CENTRAL WISCONSIN

CITY           SKY/WX    TMP DP  RH WIND       PRES   REMARKS
IRONWOOD       PTCLDY    43  31  62 SW14G22   29.39F
MANITOWISH WTR PTCLDY    39  30  68 SW13      29.45F
ARBOR VITAE    CLOUDY    38  29  71 S8        29.47F
EAGLE RIVER    CLOUDY    40  26  59 SW9G21    29.46F
LAND O LAKES   CLOUDY    40  28  62 SW12G24   29.47F
RHINELANDER    CLOUDY    38  28  67 SW14G23   29.51F
PHILLIPS       CLOUDY    41  31  67 SW10      29.48F
ANTIGO         CLOUDY    37  27  67 SW14      29.57F
TOMAHAWK       CLOUDY    38  28  65 S3        29.53F
MERRILL        CLOUDY    38  27  65 SW6       29.57F
$$

WIZ013-073-241000-
NORTHEAST WISCONSIN

CITY           SKY/WX    TMP DP  RH WIND       PRES   REMARKS
IRON MOUNTAIN  CLOUDY    36  24  62 S8        29.50F
MARINETTE      CLOUDY    38  27  64 SW13G21   29.61F
OCONTO         CLOUDY    37  27  66 SW9       29.62F
$$

WIZ017-030-035>037-045-241000-
CENTRAL WISCONSIN

CITY           SKY/WX    TMP DP  RH WIND       PRES   REMARKS
MEDFORD        PTCLDY    38  28  69 S10       29.54F
WAUSAU         PTCLDY    37  27  67 S8        29.56F
MOSINEE        PTCLDY    34  28  80 S9        29.59F
MARSHFIELD     PTCLDY    37  27  67 S10       29.56F
WISC RAPIDS    CLOUDY    40  28  62 S8        29.61F
STEVENS POINT  MOCLDY    36  26  67 S9        29.60F
WAUPACA        CLOUDY    38  28  66 S7        29.64F
SHAWANO        CLOUDY    38  27  62 SW7       29.62F
CLINTONVILLE   MOCLDY    37  25  60 S8        29.63F
WAUTOMA        CLOUDY    35  26  69 S6        29.66F
$$

WIZ038-039-048-051-241000-
FOX VALLEY

CITY           SKY/WX    TMP DP  RH WIND       PRES   REMARKS
NWS GREEN BAY  CLOUDY    37  29  72 S9        29.65F
APPLETON       CLOUDY    36  27  69 S14       29.64F
OSHKOSH        CLEAR     37  28  70 S14G21    29.67F
FOND DU LAC    PTCLDY    39  26  59 SW14      29.69F
$$

WIZ022-050-052-241000-
EAST CENTRAL WISCONSIN

CITY           SKY/WX    TMP DP  RH WIND       PRES   REMARKS
EPHRAIM        CLOUDY    39  26  59 SW10G17   29.61F
WASHINGTON ISL CLOUDY    39  27  62 S14G21    29.61F
STURGEON BAY   CLOUDY    37  26  64 SW12      29.65F
MANITOWOC      CLEAR     33  25  72 S8        29.69F
SHEBOYGAN      PTCLDY    36  28  73 S12       29.70F
$$

LMZ563-521-522-541>543-241000-
LAKESHORE

STATION/POSITION TIME  TEMP    WIND        PRES    VSBY  WAVE
                       AIR SEA DIR/SP/G                  HT/PER
                 (UTC) (F)     (DEG/KT/KT) (MB)    (MI)  (FT/S)
SHEBOYGAN LKSHOR 0900   38     190/ 15/ 17 1006.0F
KEWAUNEE LKSHORE 0848   36     200/  8/ 12 1004.1F
NORTHPORT PIER   0900   40     170/  7/ 16 1002.7
N MID LAKE BUOY  0850   45 47  200/ 25/ 31 1003.5F         7/ 6
SISTER BAY LKSHO 0819   39     180/ 13/ 16   N/A
MENOMINEE LKSHOR 0848   39     190/ 12/ 18 1002.8F
$$




USA.gov is the U.S. government's official web portal to all federal, state and local government web resources and services.